Vertical_Velocity
-1 -1 -1 1 -0 -0 -0 1 -1 -1 -0 1 1 0 0 0 -1 0 -1 -0 1 1 -1 -0 -1 -1 0 0 -0 -1 -0 -1 -2
-0 -1 -1 -2 -0 0 -3 -0 -1 -0 -0 -0 0 2 2 -0 -0 -0 -1 -1 -0 0 -0 -0 -0 -1 -0 -0 1 -0 -1 -0 -1
-1 0 1 1 -1 -1 -0 -1 -0 -1 -1 -0 -0 0 1 3 0 0 0 -1 -1 -1 -1 -1 0 -1 -0 -1 -1 0 0 -1 -0
2 -0 -1 1 -0 -0 -0 -0 -0 -0 -1 -1 -2 -1 0 -0 2 -0 0 1 1 1 -0 -2 -1 -0 0 -0 -0 -1 0 0 0
-0 0 -1 -1 -0 -0 -1 -0 -1 -1 -2 -1 1 -1 -2 -0 1 2 2 2 1 -0 1 1 -0 -0 0 -0 -1 -0 -1 -2 -1
-1 -1 1 -1 -1 -1 0 1 1 1 -1 -1 -2 0 -0 -2 -1 -1 3 1 1 2 -0 0 1 -0 -0 -0 0 -1 -1 -0 -1
-1 -1 -1 -1 -0 1 -1 -2 -1 1 1 -1 -1 -0 -2 -3 -2 -2 -1 1 0 -0 1 -0 -0 0 -0 1 -0 -1 1 0 -0
4 -2 -1 -1 1 -1 1 1 -1 0 0 -0 1 -0 -1 -1 -2 -5 -0 -0 -1 -1 -0 0 1 1 -0 -0 1 -0 -1 -0 1
3 3 -0 -0 -1 1 -1 1 2 -1 -1 -1 0 1 -0 -1 -1 -5 -2 -1 -0 1 0 1 -0 -0 1 0 -0 -0 0 -2 -1
1 4 1 3 4 1 -2 0 3 2 1 -1 -2 0 0 0 0 0 -0 -3 -1 -2 -1 -0 1 -0 -1 -0 1 0 1 -0 -1
2 4 -0 0 1 2 4 -0 1 0 2 -1 -1 0 0 1 0 1 -3 1 -4 -0 -2 -0 -1 0 1 -1 -0 -1 -3 -4 -0
-0 -0 -0 -1 1 4 2 9 1 -1 0 2 1 -2 -1 -1 -1 -1 1 -1 3 -3 -1 0 -1 -2 -2 -0 -0 1 0 2 -1
-0 -1 1 -2 1 4 -1 6 -3 1 1 2 3 0 2 1 -1 -0 -0 0 1 4 0 1 -1 -3 1 0 0 1 -0 -1 -1
-2 -4 -4 -5 4 -2 1 -1 3 3 -0 -3 -0 3 2 3 0 -3 0 -1 -1 3 2 3 0 -1 -2 -0 1 0 -5 0 -1
-3 -3 -1 3 -5 2 5 2 5 2 -2 2 -1 17 2 0 2 -4 2 0 -2 -3 2 -2 4 1 -0 -3 -3 -0 0 -2 2
2 -0 0 1 -1 -3 -0 2 1 1 2 1 -7 -12 11 14 2 -2 3 -22 -16 3 4 8 -4 3 3 3 -2 -3 1 -1 1
1 -1 -2 0 -2 -0 1 1 -2 -1 -1 3 4 -6 -3 -2 -2 -5 -3 1 -2 -2 -9 -1 7 -1 -0 5 4 -5 1 1 -1
-0 -0 -1 0 0 -2 -1 -4 -1 -1 -2 2 8 2 -6 -1 2 0 1 -11 -7 -10 -9 -2 -8 -0 0 0 5 -1 -0 1 2
1 -1 -2 -3 -2 -3 -1 -1 1 5 1 -6 3 9 8 4 -4 -3 2 1 -7 5 -0 -8 -4 -1 -9 -5 1 2 -3 1 5
-3 -1 -2 -4 -5 -1 -1 -3 -1 -1 -0 4 -1 0 -7 41 -7 5 -1 3 -6 -3 -2 -5 2 -1 2 5 -1 13 14 3 0
Height
3160 3160 3161 3161 3160 3160 3160 3160 3159 3159 3160 3160 3161 3162 3163 3164 3164 3164 3164 3164 3163 3163 3163 3162 3161 3160 3159 3159 3158 3157 3157 3156 3155
3158 3160 3161 3160 3160 3160 3160 3159 3159 3159 3160 3160 3161 3162 3162 3163 3163 3164 3164 3164 3164 3163 3163 3162 3161 3160 3159 3158 3158 3157 3157 3156 3156
3157 3158 3158 3160 3160 3160 3159 3159 3159 3159 3159 3160 3160 3161 3161 3161 3162 3162 3163 3164 3163 3163 3162 3162 3161 3160 3159 3158 3157 3157 3156 3155 3155
3155 3156 3157 3158 3159 3159 3159 3159 3159 3159 3159 3159 3160 3160 3160 3161 3160 3160 3161 3162 3162 3162 3162 3161 3160 3160 3159 3158 3157 3156 3155 3155 3155
3153 3154 3155 3156 3156 3157 3158 3158 3159 3159 3159 3159 3158 3159 3159 3159 3159 3160 3160 3160 3160 3161 3160 3159 3159 3159 3158 3157 3156 3155 3155 3154 3153
3150 3152 3153 3154 3155 3155 3156 3157 3157 3158 3158 3158 3158 3158 3157 3157 3157 3157 3159 3158 3158 3158 3159 3158 3158 3157 3157 3156 3155 3154 3153 3152 3152
3148 3149 3150 3151 3152 3153 3154 3154 3155 3155 3156 3156 3156 3157 3156 3156 3155 3155 3156 3156 3156 3156 3156 3156 3155 3155 3155 3154 3153 3153 3152 3151 3150
3145 3146 3147 3148 3149 3150 3151 3152 3152 3152 3153 3153 3154 3154 3154 3154 3154 3153 3153 3153 3153 3154 3154 3153 3153 3152 3152 3152 3151 3151 3150 3149 3148
3140 3142 3143 3144 3145 3146 3146 3147 3149 3149 3150 3151 3151 3152 3152 3152 3151 3151 3152 3151 3150 3150 3151 3151 3151 3150 3150 3149 3149 3149 3148 3147 3146
3137 3138 3139 3140 3141 3142 3142 3144 3144 3146 3146 3147 3148 3149 3148 3148 3148 3148 3149 3148 3148 3148 3148 3148 3148 3147 3147 3147 3146 3146 3146 3145 3144
3132 3133 3135 3136 3137 3138 3139 3139 3140 3140 3141 3142 3143 3144 3144 3144 3144 3145 3144 3145 3145 3145 3145 3145 3145 3145 3144 3144 3144 3143 3143 3142 3142
3128 3128 3130 3132 3133 3134 3134 3134 3134 3135 3136 3137 3138 3139 3140 3140 3140 3140 3140 3140 3141 3141 3141 3141 3141 3141 3141 3140 3140 3140 3139 3139 3139
3124 3125 3126 3127 3127 3128 3129 3129 3129 3130 3130 3131 3131 3133 3134 3135 3134 3135 3135 3135 3135 3136 3137 3137 3137 3137 3137 3136 3136 3137 3136 3136 3135
3119 3121 3122 3121 3122 3122 3124 3124 3124 3124 3125 3125 3125 3126 3125 3128 3128 3129 3131 3130 3131 3131 3132 3133 3133 3133 3133 3133 3132 3133 3132 3132 3131
3112 3114 3115 3115 3115 3117 3117 3116 3117 3116 3119 3118 3117 3116 3118 3119 3120 3122 3124 3125 3126 3127 3127 3127 3128 3129 3129 3129 3129 3129 3129 3127 3127
3105 3106 3107 3108 3107 3109 3109 3109 3109 3110 3111 3111 3110 3109 3108 3107 3110 3114 3111 3113 3113 3118 3119 3121 3122 3123 3123 3124 3125 3125 3124 3123 3123
3098 3099 3099 3100 3099 3100 3102 3102 3102 3101 3102 3101 3101 3098 3100 3100 3103 3102 3102 3107 3109 3110 3111 3111 3115 3115 3116 3118 3119 3119 3119 3118 3117
3091 3092 3092 3092 3092 3092 3093 3093 3093 3092 3092 3093 3093 3090 3087 3091 3091 3093 3096 3096 3099 3101 3103 3101 3102 3105 3107 3109 3112 3113 3112 3112 3112
3083 3083 3083 3084 3083 3083 3083 3083 3083 3083 3082 3082 3083 3084 3083 3082 3082 3083 3086 3088 3089 3091 3095 3096 3098 3099 3099 3101 3104 3106 3106 3105 3105
3076 3075 3074 3074 3074 3074 3073 3072 3072 3072 3072 3071 3072 3074 3074 3074 3074 3074 3077 3077 3078 3081 3084 3085 3087 3089 3090 3093 3095 3097 3099 3098 3098